www.pogodaiklimat.ru

Погода и климат >> Архив погоды >> Индонезия >> Sentani Airport


ПОГОДА в Sentani Airport

  • Прогноз погоды в Sentani Airport
  • Монитор погоды в Sentani Airport
  • Климат города

АРХИВ ПОГОДЫ в Sentani Airport

Время (UTC), дата Ветер
(напр.,м/с)
 
Видим.   Явления Облачность Т
(С)
Тd
(С)
f
(%)
Тe
(С)
Тes
(С)
Комфортность P
(гПа)
Po
(гПа)
Тmin
(С)
Tmax
(С)
R
(мм)
R24
(мм)
S
(см)
21 10.10 штиль 0 10 км 5/3 300 м
[Frnb Ac trans Ci sp]
+24.6 +23.0 91 +33 +33 очень
душно
1010.2 1000.6
00 11.10 ЮВ 3 10 км 5/4 400 м
[Cu med, cong Ac trans Ci fib]
+29.7 +24.3 73 +42 +48 опасность
перегрева
1011.6 1002.0 +24.1 0.7
03 11.10 ЮВ 4 10 км 6/4 400 м
[Cu med, cong Ac trans Ci fib]
+33.0 +23.4 57 +44 +51 опасность
перегрева
1008.8 999.3
06 11.10 ЮВ 3 10 км 8/4 400 м
[Cu med, cong Ac trans Ci sp]
+31.2 +24.1 66 +43 +46 опасность
перегрева
1007.0 997.5
09 11.10 штиль 0 9000 м зарница 9/4 360 м
[Cb cap Ac trans Cs]
+28.5 +24.3 78 +40 +40 очень
душно
1008.5 999.0
12 11.10 штиль 0 9000 м 8/4 400 м
[Cu med, cong Ac trans Ci sp]
+27.1 +24.6 86 +38 +38 очень
душно
1010.8 1001.2 +34.0
15 11.10 штиль 0 9000 м 6/3 400 м
[Cu med, cong Ac trans Ci sp]
+25.5 +23.0 86 +34 +34 очень
душно
1010.3 1000.7
18 11.10 штиль 0 9000 м 6/3 300 м
[Frnb Ac trans Ci sp]
+24.6 +22.9 90 +33 +33 очень
душно
1009.0 999.4
21 11.10 штиль 0 10 км 6/3 300 м
[Frnb Ac trans Ci sp]
+24.6 +23.2 92 +33 +33 очень
душно
1009.9 1000.3
00 12.10 ЮВ 4 10 км 8/3 360 м
[Cu med, cong Ac trans Ci sp]
+30.5 +25.1 73 +44 +48 опасность
перегрева
1010.9 1001.3 +24.4
03 12.10 ЮВ 6 10 км 6/3 400 м
[Cu med, cong Ac trans Ci fib]
+33.1 +25.4 64 +48 +52 опасность
перегрева
1008.3 998.8
06 12.10 В 6 10 км 8/4 400 м
[Cu med, cong Ac trans Ci sp]
+31.6 +24.9 68 +45 +47 опасность
перегрева
1006.5 997.0
09 12.10 В 1 9000 м осадки на расстоянии 8/3 360 м
[Cb calv Ac trans Cs]
+28.9 +22.2 67 +38 +38 очень
душно
1007.6 998.1
12 12.10 штиль 0 9000 м 6/3 400 м
[Cu med, cong Ac trans Ci sp]
+27.1 +23.1 79 +36 +36 очень
душно
1010.0 1000.4 +34.4
15 12.10 ЮВ 4 9000 м 4/1 300 м
[Frnb Ac trans Ci sp]
+26.1 +24.1 89 +36 +36 очень
душно
1009.7 1000.1
18 12.10 ЮВ 2 9000 м 5/3 300 м
[Frnb Ac trans Ci sp]
+25.5 +23.7 90 +35 +35 очень
душно
1008.7 999.1
21 12.10 штиль 0 9000 м 8/4 300 м
[Frnb Ac trans Ci sp]
+25.0 +23.6 92 +34 +34 очень
душно
1009.9 1000.3
00 13.10 ЮВ 3 10 км 8/1 400 м
[Cu med, cong Ac trans Cs]
+29.6 +24.2 73 +41 +47 опасность
перегрева
1011.0 1001.4 +24.8
03 13.10 ЮВ 4 10 км 6/3 400 м
[Cu med, cong Ac trans Ci fib]
+33.1 +23.2 56 +44 +52 опасность
перегрева
1008.5 998.9
06 13.10 ЮВ 4 10 км 5/3 400 м
[Cu med, cong Ac trans Ci fib]
+33.8 +23.1 54 +44 +48 опасность
перегрева
1005.9 996.4
09 13.10 З 3 10 км 5/4 400 м
[Cu med, cong Ac trans Ci fib]
+29.0 +23.9 74 +40 +40 очень
душно
1007.8 998.3
12 13.10 штиль 0 10 км 4/3 400 м
[Cu med, cong Ac trans Ci fib]
+27.2 +22.8 77 +36 +36 очень
душно
1009.9 1000.3 +35.4
15 13.10 СВ 1 10 км зарница 8/3 <50 м
[Cb cap Ac trans Cs]
+26.0 +22.9 83 +35 +35 очень
душно
1009.5 999.9
18 13.10 штиль 0 10 км 8/3 330 м
[Frnb Ac trans Ci sp]
+25.2 +22.9 87 +33 +33 очень
душно
1008.4 998.8
21 13.10 С 1 8000 м 8/4 360 м
[Frnb Ac trans Ci sp]
+24.8 +23.0 90 +33 +33 очень
душно
1009.8 1000.2
00 14.10 ЮВ 1 10 км 8/4 400 м
[Cu med, cong Ac trans Ci fib]
+29.6 +24.7 75 +42 +48 опасность
перегрева
1010.9 1001.3 +24.5
03 14.10 ЮВ 5 10 км 6/5 400 м
[Cu med, cong Ac trans Ci fib]
+33.4 +23.2 55 +44 +49 опасность
перегрева
1008.2 998.7
06 14.10 ЮВ 4 10 км 9/4 400 м
[Cu med, cong Ac trans Cs]
+30.6 +21.0 57 +38 +40 очень
душно
1006.7 997.1
09 14.10 ЮЗ 2 10 км 8/3 400 м
[Cu med, cong Ac trans Ci ing]
+27.9 +23.1 75 +37 +37 очень
душно
1008.3 999.1
12 14.10 СВ 1 10 км 8/3 400 м
[Cu med, cong Ac trans Ci sp]
+26.6 +23.3 82 +36 +36 очень
душно
1010.2 1000.6
15 14.10 СЗ 1 10 км 9/3 400 м
[Cu med, cong Ac trans Ci sp]
+25.7 +22.2 81 +33 +33 очень
душно
1010.3 1000.7
18 14.10 штиль 0 10 км 9/5 300 м
[Frnb Ac trans Ci sp]
+26.1 +23.4 85 +35 +35 очень
душно
1009.0 999.4
21 14.10 З 2 6000 м мгла 8/3 300 м
[Frnb Ac trans Ci fib]
+25.6 +23.1 86 +34 +34 очень
душно
1010.2 1000.6
00 15.10 ЮВ 2 10 км 6/3 400 м
[Cu med, cong Ac trans Ci fib]
+30.2 +25.0 74 +44 +51 опасность
перегрева
1011.2 1001.6 +25.2
03 15.10 ЮВ 3 10 км 8/4 400 м
[Cu med, cong Ac trans Ci fib]
+33.3 +24.5 60 +46 +54 опасность
перегрева
1008.2 998.1
06 15.10 ЮВ 5 10 км 8/4 360 м
[Cb calv Ac trans Ci sp]
+32.7 +24.7 63 +46 +48 опасность
перегрева
1006.7 997.2
09 15.10 ЮЗ 2 9000 м зарница {гроза} 9/4 360 м
[Cb calv Ac trans Cs]
+27.5 +23.7 80 +38 +38 очень
душно
1008.8 999.3
12 15.10 штиль 0 8000 м в посл. час дождь {гроза} 9/4 400 м
[Cu med, cong Ac trans Cs]
+26.7 +25.1 91 +38 +38 очень
душно
1011.5 1001.9 +34.8 2
15 15.10 штиль 0 8000 м в посл. час дождь 9/4 400 м
[Cu med, cong As op Cs]
+25.9 +24.1 90 +36 +36 очень
душно
1010.5 1000.9 0.3
18 15.10 З 3 9000 м 9/4 300 м
[Cu med, cong Ac As Cs]
+24.7 +23.5 93 +33 +33 очень
душно
1009.0 999.4 0.3
21 15.10 ЮЗ 2 7000 м слабый дождь {гроза} 9/4 360 м
[Cb cap Ac As Cs]
+23.4 +22.5 95 +32 +33 очень
душно
1011.3 1001.7 31
00 16.10 В 2 9000 м слабый дождь 10/5 300 м
[Frnb Ac As Cs]
+25.4 +23.3 88 +34 +38 очень
душно
1013.1 1003.5 +22.1 2
03 16.10 В 2 9000 м слабый дождь 9/5 360 м
[Cu med, cong Ac As Cs]
+27.4 +24.1 82 +38 +44 очень
душно
1009.9 1000.3 0.3
06 16.10 ЮВ 1 9000 м {дождь} 9/3 400 м
[Cu med, cong Ac As Cs]
+29.0 +23.4 72 +39 +44 очень
душно
1006.3 996.8 0.1
09 16.10 СЗ 2 10 км 8/3 400 м
[Cu med, cong Ac trans Ci sp]
+26.8 +23.3 81 +36 +36 очень
душно
1007.9 998.4
12 16.10 штиль 0 10 км 6/3 400 м
[Cu med, cong Ac trans Ci sp]
+25.0 +22.7 87 +33 +33 очень
душно
1010.5 1001.0 +29.6
15 16.10 штиль 0 10 км зарница 5/3 360 м
[Cb cap Ac trans Ci fib]
+24.2 +22.4 90 +32 +32 очень
душно
1009.7 1000.2
18 16.10 штиль 0 10 км 6/3 300 м
[Frnb Ac As Ci fib]
+23.8 +22.3 91 +31 +31 очень
душно
1008.5 998.9
21 16.10 штиль 0 10 км 6/3 300 м
[Frnb Ac trans Ci fib]
+23.2 +21.6 91 +31 +32 очень
душно
1009.5 1000.0
00 17.10 ЮЗ 1 10 км 6/4 400 м
[Cu med, cong Ac trans Ci sp]
+28.9 +24.9 79 +41 +49 опасность
перегрева
1010.7 1001.1 +23.0 0.4
03 17.10 Ю 2 10 км 6/4 400 м
[Cu med, cong Ac trans Ci sp]
+32.9 +21.5 51 +41 +52 опасность
перегрева
1007.8 998.3
06 17.10 З 4 10 км 8/5 360 м
[Cb cap Ac trans Ci]
+31.5 +25.1 69 +45 +47 опасность
перегрева
1006.4 996.8
09 17.10 штиль 0 50 км ?/? +27.8 +23.8 79 +38 +38 очень
душно
1008.3 998.7
12 17.10 СВ 1 10 км 9/1 400 м
[Cu med, cong Ac trans Ci fib]
+26.5 +24.2 87 +37 +37 очень
душно
1010.8 1001.3 +34.0
15 17.10 штиль 0 10 км 9/4 400 м
[Cu Sc Ac trans Ci fib]
+25.0 +22.3 85 +33 +33 очень
душно
1009.5 999.9

 

Местоположение метеостанции Sentani Airport (Индонезия): широта -2.58 долгота 140.52 высота над уровнем моря 99 м.

В архиве по умолчанию представлена погода в Sentani Airport за последнюю неделю. Архивные данные за месяц целиком и за предыдущие месяцы, начиная с января 2011 года, Вы можете получить, выбрав интересующий диапазон дат из раскрывающегося списка и нажав кнопку "Ввод!".


*Определитесь, кто Вы:
робот инопланетянин человек

Внимание! Время в таблицах - всемирное. Для получения местного времени необходимо прибавить поправку, которая в Sentani Airport равна 7 ч.

Смотрите также архив погоды в соседних городах и на ближайших метеорологических станциях:

Погода в Jayapura (Индонезия) (21 км)
Погода в Sarmi (Индонезия) (218 км)
Погода в Wamena (Индонезия) (241 км)
Погода в Tanah Merah (Индонезия) (392 км)
Погода в Kokonao (Индонезия) (434 км)
Погода в Serui (Индонезия) (483 км)
Погода в Enarotali (Индонезия) (484 км)
Погода в Biak (Индонезия) (514 км)
Погода в Nabire (Индонезия) (564 км)
Погода в Merauke (Индонезия) (655 км)

Пояснения к столбцам:

Ветер - указаны скорость ветра в м/с - средняя за 10 мин, порывы в срок и между сроками (в фигурных скобках) и направление, откуда дует ветер: С - северный, СВ - северо-восточный, В - восточный, ЮВ - юго-восточный, Ю - южный, ЮЗ - юго-западный, З - западный, СЗ - северо-западный.
Видимость - горизонтальная дальность видимости в метрах или километрах. При видимости от 1 до 10 км при отсутствии осадков обычно наблюдается дымка, при ухудшении видимости до 1 км и менее - туман. В сухую погоду видимость может ухудшаться дымом, пылью или мглою.
Явления - указаны атмосферные явления, наблюдавшиеся в срок или в последний час перед сроком; фигурными скобками обозначены явления, наблюдавшиеся между сроками (за 1-3 часа до срока); квадратными скобками обозначены град или гололедные отложения с указанием их диаметра в мм.
Облачность - указаны через наклонную черту общая и нижняя облачность в баллах и высота нижней границы облаков в метрах; квадратными скобками обозначены формы облаков: Ci - перистые, Cs - перисто-слоистые, Cc - перисто-кучевые, Ac - высококучевые, As - высокослоистые, Sc - слоисто-кучевые, Ns - слоисто-дождевые, Cu - кучевые, Cb - кучево-дождевые. Подробнее классификацию облаков см. в Атласе облаков (PDF).
T - Температура воздуха - температура, измеренная на высоте 2 м над землей.
Td - Температура точки росы - температура, при понижении до которой содержащийся в воздухе водяной пар достигнет насыщения.
f - Относительная влажность воздуха - влажноcть воздуха, измеренная на высоте 2 м над землей.
Te - Эффективная температура - температура, которую ощущает одетый по сезону человек в тени. Характеристика душности погоды. При расчете учитывается влияние влажности воздуха и скорости ветра на теплоощущения человека.
Tes - Эффективная температура на солнце - температура, которую ощущает человек, с поправкой на солнечный нагрев. Характеристика знойности погоды. Зависит от высоты солнца над горизонтом, облачности и скорости ветра. Ночью, в пасмурную погоду, а также при ветре 12 м/с и более поправка равна нулю.
P - Атмосферное давление - приведенное к уровню моря атмосферное давление.
Po - Атмосферное давление - измеренное на уровне метеостанции атмосферное давление.
Tmin - Минимальная температура - минимум температуры воздуха на высоте 2 м над землей.
Tmax - Максимальная температура - максимум температуры воздуха на высоте 2 м над землей.
R - Количество осадков - Количество выпавших осадков за период времени, мм. При наведении курсора мыши на число - период времени, за который выпало указанное количество осадков.
R24 - Количество осадков - Количество выпавших осадков за 24 часа, мм.
S - Снежный покров - Высота снежного покрова, см. При наведении курсора мыши на число - состояние снежного покрова и степень покрытия местности в баллах.